Location: ????????
(55.0808°N, 38.5463°E)
Time: 11:23:51
(UTC+00:00)

CZ-2C R/B - Pass Details

Date: 14 April 2024
Orbit: 782 x 869 km, 98.3° (Epoch: 19 May)

Event Time Altitude Azimuth Distance (km) Brightness Sun altitude
Exits shadow 01:31:23 - 251° (WSW) 2,544 4.5 -7.8°
Reaches altitude 10° 01:31:54 10° 256° (WSW) 2,461 4.5 -7.7°
Maximum altitude 01:34:00 12° 279° (W) 2,302 4.5 -7.4°
Drops below altitude 10° 01:36:05 10° 302° (WNW) 2,445 4.8 -7.2°
Sets 01:40:09 0° 332° (NNW) 3,362 5.8 -6.7°
